Regional Weather Roundup
Issued by NWS Goodland, KS

Home | Current Version | Previous Version | Text Only | Print | Product List | Glossary Off
Versions: 1 2 3 4 5 6 7 8 9 10 11 12 13 14 15 16 17 18 19 20 21 22 23 24 25 26 27 28 29 30 31 32 33 34 35 36 37 38 39 40 41 42 43 44 45 46 47 48 49 50

000
ASUS43 KGLD 281108
RWRGLD

GOODLAND FORECAST AREA HOURLY WEATHER ROUNDUP
NATIONAL WEATHER SERVICE GOODLAND KS
500 AM MDT TUE JUL 28 2015

...OFFICIAL OBSERVATIONS...

CITY           SKY/WX    TMP DP  RH WIND       PRES   REMARKS
GOODLAND KS    CLEAR     72  49  44 NW23      29.90R
HILL CITY KS   CLEAR     79  67  66 S16G22    29.77R
IMPERIAL NEB   CLEAR     69  48  47 N20G26    29.90R
MCCOOK NEB     CLEAR     73  67  81 SW6       29.78R
AKRON CO         N/A    N/A N/A N/A MISG      30.04R
BURLINGTON CO  CLEAR     68  46  45 N18G24    29.96R
LIMON CO       CLEAR     61  36  39 N21G28    30.08R
$$

...UNOFFICIAL OBSERVATIONS...

CITY           SKY/WX    TMP DP  RH WIND       PRES   REMARKS
COLBY KS       CLEAR     72  66  83 W14       29.86R
LENORA KS        N/A     78  32  18 MISG        N/A
NORTON KS      CLEAR     79  63  57 SW12G20   29.77R
SHARON SPRINGS   N/A     72  59  63 N12G18      N/A
TRIBUNE KS       N/A    N/A N/A N/A MISG        N/A
KIT CARSON CO    N/A     66  45  47 MISG        N/A
YUMA CO          N/A     65  41  41 NW12        N/A
$$



USA.gov is the U.S. government's official web portal to all federal, state and local government web resources and services.